Showing default

IRIDIUM 170, 43930

Orbit data source: Space-Track

IRIDIUM 170, 43930 is a payload satellite owned by Iridium (US) in LEO that was launched on Fri, 11 Jan 2019 UTC via an FALCON 9 launch vehicle from the Air Force Western Test Range (AFWTR). Payload-class satellites include a variety of spacecraft equipped with specific instruments for various scientific and technological missions. These include communications satellites like Starlink; space stations such as the ISS; scientific satellites like the Hubble; Earth observation satellites from companies like Planet Labs, Umbra, and HawkEye 360; GPS; miniature CubeSats for education and research; and military/defense satellites.

Loading next visibility...
Identifier
43930, 2019-002J
Orbit
LEO
Country
Flag of USUS
Related business
Manufacturer
NGIS SSG Gilbert
Mission
Operational Commercial Communications
Bus & Motor
ELITEBUS, Unknown motor
Mass
860 kg wet, 700 kg dry
Launch date (UTC)
2019-01-11 (7 years ago)
Launch vehicle
FALCON 9
Launch site
Air Force Western Test Range (AFWTR)
Object type
Payload
Rocket body
Debris
Shape & HBR
Trap Box + 2 Pan, 4.8 m
Radar Cross Section
10.154 m², Large (>1 m²)

Expand to show TLE details & history
Last TLE update: 7 hours ago

TLE from 7 hours ago
0 IRIDIUM 170
1 43930U 19002J   25303.84212426  .00001629  00000-0  25437-3 0  9995
2 43930  86.6052  89.4576 0002254  90.0023 270.1453 14.72254881365518
Epoch: 2025-10-30T20:12Z
TLE epoch observation values (Epoch: 2025-10-30T20:12:39.536Z)
Latitude
0.00006°
Longitude
106.89776°
Altitude
656.983 km
Speed
7.529 km/s
True Right ascension
05h 57m 49s
True Declination
0° 00' 00"
Sunlit
Object was in full shadow at epoch
Visualization orbit readout
Latitude
Unknown
Longitude
Unknown
Altitude
Unknown
Speed
Unknown
Apparent Right ascension
Unknown
Apparent Declination
Unknown
Sunlit
N/A
Visualization observer readout
Local Sidereal Time
22:55:17
Azimuth
Unknown
Elevation
Unknown
Doppler factor
Unknown
Orbital elements
Apogee altitude
652.37 km
Perigee altitude
649.201 km
Semi-major axis
7,028.923 km
Eccentricity
0.00023
Inclination
86.6052°
RAAN
89.4576°
Arg. of periapsis
90.0023°
True anomaly
270.11947°
Mean anomaly
270.1453°
Eccentric anomaly
270.13239°
Mean motion
3.68307 °/min
Orbital period
97.74 mins
BSTAR
0.00025437
Loading maneuver chart data...
Computing Atmospheric mass density...
Loading historical data...
Loading historical data...
Loading historical data...
Loading historical data...
Loading historical data...
Loading historical data...
Loading historical data...

Documentation

Showing up to 5 results
|